GTI842 SEQM-SKBO

Flight info

Callsign GTI842
Flight time 1h 1m
Altitude 36000
Route ARNOK3A ARNOK UP533 BOKAN DCT ESARO DCT GIR GIR5E
Aircraft B77L/H-SDE1E2E3FGHIJ2J3J4J5M1RWXY/LB1D1

Departure

Time 2026-05-04 18:27
Airport Mariscal Sucre International Airport (SEQM)

Arrival

Time 2026-05-04 19:28
Airport El Dorado International Airport (SKBO)
Time Latitude Longitude Altitude Speed Heading
2026-05-04 18:04 -0.13093 -78.35751 7947 ft 0 kts 268°
2026-05-04 18:17 -0.13093 -78.35735 7947 ft 0 kts 269°
2026-05-04 18:18 -0.13092 -78.35723 7948 ft 2 kts 260°
2026-05-04 18:18 -0.13088 -78.35709 7948 ft 2 kts 244°
2026-05-04 18:18 -0.13080 -78.35696 7948 ft 2 kts 232°
2026-05-04 18:18 -0.13070 -78.35686 7948 ft 2 kts 219°
2026-05-04 18:19 -0.13044 -78.35672 7946 ft 2 kts 193°
2026-05-04 18:19 -0.13029 -78.35670 7945 ft 1 kts 180°
2026-05-04 18:19 -0.13023 -78.35670 7945 ft 1 kts 176°
2026-05-04 18:20 -0.13022 -78.35670 7945 ft 0 kts 176°
2026-05-04 18:22 -0.13032 -78.35669 7946 ft 3 kts 176°
2026-05-04 18:22 -0.13076 -78.35667 7949 ft 8 kts 178°
2026-05-04 18:22 -0.13154 -78.35664 7954 ft 13 kts 178°
2026-05-04 18:23 -0.13273 -78.35660 7961 ft 19 kts 177°
2026-05-04 18:23 -0.13394 -78.35654 7969 ft 14 kts 178°
2026-05-04 18:23 -0.13492 -78.35648 7975 ft 13 kts 174°
2026-05-04 18:23 -0.13563 -78.35622 7980 ft 10 kts 124°
2026-05-04 18:24 -0.13598 -78.35568 7982 ft 8 kts 159°
2026-05-04 18:24 -0.13679 -78.35560 7986 ft 14 kts 178°
2026-05-04 18:24 -0.13792 -78.35556 7992 ft 19 kts 177°
2026-05-04 18:24 -0.13945 -78.35548 8001 ft 23 kts 178°
2026-05-04 18:25 -0.14096 -78.35544 8008 ft 17 kts 178°
2026-05-04 18:25 -0.14197 -78.35538 8013 ft 12 kts 170°
2026-05-04 18:25 -0.14252 -78.35490 8017 ft 10 kts 106°
2026-05-04 18:25 -0.14253 -78.35421 8019 ft 10 kts 80°
2026-05-04 18:26 -0.14222 -78.35366 8018 ft 9 kts 14°
2026-05-04 18:26 -0.14098 -78.35369 8012 ft 29 kts 357°
2026-05-04 18:26 -0.13648 -78.35388 7989 ft 101 kts 357°
2026-05-04 18:26 -0.12713 -78.35430 7934 ft 168 kts 357°
2026-05-04 18:27 -0.11367 -78.35504 8142 ft 201 kts 358°
2026-05-04 18:27 -0.09983 -78.35574 8919 ft 206 kts 357°
2026-05-04 18:27 -0.08567 -78.35720 9705 ft 206 kts 345°
2026-05-04 18:27 -0.07126 -78.36176 9983 ft 227 kts 342°
2026-05-04 18:28 -0.05567 -78.36699 10282 ft 249 kts 342°
2026-05-04 18:28 -0.03867 -78.37273 10826 ft 260 kts 342°
2026-05-04 18:28 -0.02156 -78.37851 11573 ft 263 kts 342°
2026-05-04 18:28 -0.00401 -78.38443 12252 ft 269 kts 343°
2026-05-04 18:29 0.01394 -78.39049 12975 ft 275 kts 343°
2026-05-04 18:29 0.03271 -78.39681 13429 ft 293 kts 343°
2026-05-04 18:29 0.05249 -78.40346 13891 ft 311 kts 343°
2026-05-04 18:29 0.07340 -78.41045 14622 ft 318 kts 345°
2026-05-04 18:30 0.11796 -78.41708 15897 ft 339 kts
2026-05-04 18:30 0.14225 -78.41502 16343 ft 356 kts 12°
2026-05-04 18:30 0.16667 -78.40873 16765 ft 372 kts 22°
2026-05-04 18:31 0.19090 -78.39770 17187 ft 388 kts 32°
2026-05-04 18:31 0.21327 -78.38202 17628 ft 402 kts 42°
2026-05-04 18:31 0.23362 -78.36243 18346 ft 407 kts 46°
2026-05-04 18:31 0.25341 -78.34274 19224 ft 408 kts 46°
2026-05-04 18:32 0.27370 -78.32293 20048 ft 410 kts 45°
2026-05-04 18:32 0.29439 -78.30301 20752 ft 415 kts 45°
2026-05-04 18:32 0.31536 -78.28303 21436 ft 420 kts 44°
2026-05-04 18:32 0.33668 -78.26287 22088 ft 425 kts 44°
2026-05-04 18:33 0.35819 -78.24262 22778 ft 430 kts 44°
2026-05-04 18:33 0.37998 -78.22220 23499 ft 433 kts 44°
2026-05-04 18:33 0.40201 -78.20158 24227 ft 436 kts 44°
2026-05-04 18:33 0.42456 -78.18051 24962 ft 440 kts 44°
2026-05-04 18:34 0.44698 -78.15958 25666 ft 445 kts 44°
2026-05-04 18:34 0.46984 -78.13826 26342 ft 450 kts 44°
2026-05-04 18:34 0.49278 -78.11695 26973 ft 456 kts 43°
2026-05-04 18:34 0.51783 -78.09695 27667 ft 462 kts 38°
2026-05-04 18:35 0.54365 -78.07770 28434 ft 465 kts 38°
2026-05-04 18:35 0.56971 -78.05833 29145 ft 469 kts 38°
2026-05-04 18:35 0.59590 -78.03886 29845 ft 473 kts 39°
2026-05-04 18:35 0.62241 -78.01915 30650 ft 474 kts 39°
2026-05-04 18:36 0.64868 -77.99961 31591 ft 472 kts 39°
2026-05-04 18:36 0.67476 -77.98021 32604 ft 467 kts 39°
2026-05-04 18:36 0.70054 -77.96103 33619 ft 463 kts 39°
2026-05-04 18:36 0.72630 -77.94186 34601 ft 460 kts 39°
2026-05-04 18:37 0.75185 -77.92283 35529 ft 457 kts 38°
2026-05-04 18:37 0.77724 -77.90393 36352 ft 455 kts 38°
2026-05-04 18:37 0.80260 -77.88505 37039 ft 454 kts 38°
2026-05-04 18:37 0.82826 -77.86514 37516 ft 456 kts 41°
2026-05-04 18:38 0.85288 -77.84404 37522 ft 458 kts 42°
2026-05-04 18:38 0.90150 -77.80212 37512 ft 456 kts 42°
2026-05-04 18:39 0.95069 -77.75993 37513 ft 468 kts 42°
2026-05-04 18:39 0.99998 -77.71783 37498 ft 464 kts 42°
2026-05-04 18:40 1.04905 -77.67599 37485 ft 467 kts 42°
2026-05-04 18:40 1.09865 -77.63372 37448 ft 467 kts 41°
2026-05-04 18:41 1.14809 -77.59161 37410 ft 466 kts 41°
2026-05-04 18:41 1.19773 -77.54934 37362 ft 468 kts 42°
2026-05-04 18:42 1.24757 -77.50691 37290 ft 465 kts 41°
2026-05-04 18:42 1.29702 -77.46479 37279 ft 466 kts 41°
2026-05-04 18:43 1.34640 -77.42275 37281 ft 466 kts 41°
2026-05-04 18:43 1.39566 -77.38079 37271 ft 466 kts 41°
2026-05-04 18:44 1.44534 -77.33849 37240 ft 467 kts 41°
2026-05-04 18:44 1.49469 -77.29646 37250 ft 467 kts 41°
2026-05-04 18:45 1.54431 -77.25420 37228 ft 466 kts 41°
2026-05-04 18:45 1.59363 -77.21219 37258 ft 467 kts 41°
2026-05-04 18:46 1.64331 -77.16988 37236 ft 465 kts 41°
2026-05-04 18:46 1.69253 -77.12794 37241 ft 467 kts 41°
2026-05-04 18:47 1.74198 -77.08581 37229 ft 467 kts 41°
2026-05-04 18:47 1.79127 -77.04382 37238 ft 468 kts 41°
2026-05-04 18:48 1.84105 -77.00141 37207 ft 466 kts 41°
2026-05-04 18:48 1.89024 -76.95949 37192 ft 464 kts 41°
2026-05-04 18:49 1.93931 -76.91768 37220 ft 467 kts 41°
2026-05-04 18:49 1.98906 -76.87528 37211 ft 466 kts 41°
2026-05-04 18:50 2.03824 -76.83336 37237 ft 466 kts 41°
2026-05-04 18:50 2.08793 -76.79100 37252 ft 468 kts 41°
2026-05-04 18:51 2.13759 -76.74867 37281 ft 465 kts 41°
2026-05-04 18:51 2.18679 -76.70673 37276 ft 466 kts 41°
2026-05-04 18:52 2.23609 -76.66469 37246 ft 466 kts 41°
2026-05-04 18:52 2.28543 -76.62262 37270 ft 468 kts 41°
2026-05-04 18:53 2.33489 -76.58044 37244 ft 466 kts 41°
2026-05-04 18:53 2.38470 -76.53796 37250 ft 468 kts 41°
2026-05-04 18:54 2.43395 -76.49595 37269 ft 467 kts 41°
2026-05-04 18:54 2.48355 -76.45365 37294 ft 467 kts 41°
2026-05-04 18:55 2.53319 -76.41130 37363 ft 468 kts 41°
2026-05-04 18:55 2.60763 -76.34779 37428 ft 469 kts 41°
2026-05-04 18:56 2.65736 -76.30534 37497 ft 468 kts 41°
2026-05-04 18:56 2.70680 -76.26315 37566 ft 467 kts 41°
2026-05-04 18:57 2.75624 -76.22096 37589 ft 469 kts 41°
2026-05-04 18:57 2.80591 -76.17856 37589 ft 468 kts 41°
2026-05-04 18:58 2.85570 -76.13605 37565 ft 467 kts 41°
2026-05-04 18:58 2.90385 -76.09219 37625 ft 471 kts 44°
2026-05-04 18:59 2.95110 -76.04688 37685 ft 467 kts 44°
2026-05-04 18:59 2.99808 -76.00202 37769 ft 468 kts 44°
2026-05-04 19:00 3.04560 -75.95675 37763 ft 469 kts 44°
2026-05-04 19:00 3.09254 -75.91209 37694 ft 468 kts 44°
2026-05-04 19:01 3.14025 -75.86673 37643 ft 469 kts 44°
2026-05-04 19:01 3.18748 -75.82183 37576 ft 470 kts 44°
2026-05-04 19:02 3.23475 -75.77690 37556 ft 469 kts 44°
2026-05-04 19:02 3.28223 -75.73177 37453 ft 468 kts 44°
2026-05-04 19:03 3.32943 -75.68690 37427 ft 470 kts 44°
2026-05-04 19:03 3.37708 -75.64159 37363 ft 470 kts 44°
2026-05-04 19:04 3.42449 -75.59652 37304 ft 471 kts 44°
2026-05-04 19:04 3.47204 -75.55129 37253 ft 472 kts 44°
2026-05-04 19:05 3.51954 -75.50612 37156 ft 472 kts 44°
2026-05-04 19:05 3.56707 -75.46091 37133 ft 471 kts 44°
2026-05-04 19:06 3.61476 -75.41554 37151 ft 472 kts 44°
2026-05-04 19:06 3.66241 -75.37019 37097 ft 472 kts 44°
2026-05-04 19:07 3.68599 -75.34776 36922 ft 465 kts 44°
2026-05-04 19:07 3.70946 -75.32542 36084 ft 468 kts 44°
2026-05-04 19:07 3.73309 -75.30293 35304 ft 468 kts 45°
2026-05-04 19:07 3.75671 -75.28045 34568 ft 468 kts 45°
2026-05-04 19:08 3.78006 -75.25822 33765 ft 469 kts 45°
2026-05-04 19:08 3.80377 -75.23564 32981 ft 469 kts 45°
2026-05-04 19:08 3.82759 -75.21298 32445 ft 471 kts 45°
2026-05-04 19:08 3.85176 -75.18994 32042 ft 483 kts 45°
2026-05-04 19:09 3.87613 -75.16674 31533 ft 484 kts 45°
2026-05-04 19:09 3.90013 -75.14388 31007 ft 480 kts 45°
2026-05-04 19:09 3.92421 -75.12096 30471 ft 475 kts 45°
2026-05-04 19:09 3.94819 -75.09812 29934 ft 470 kts 45°
2026-05-04 19:10 3.97166 -75.07577 29407 ft 466 kts 45°
2026-05-04 19:10 3.99486 -75.05366 28889 ft 461 kts 45°
2026-05-04 19:10 4.01813 -75.03150 28376 ft 457 kts 45°
2026-05-04 19:10 4.04094 -75.00977 27860 ft 453 kts 45°
2026-05-04 19:11 4.06376 -74.98802 27333 ft 450 kts 45°
2026-05-04 19:11 4.08633 -74.96652 26814 ft 447 kts 45°
2026-05-04 19:11 4.10887 -74.94503 26280 ft 444 kts 45°
2026-05-04 19:11 4.13112 -74.92382 25766 ft 440 kts 45°
2026-05-04 19:12 4.15337 -74.90273 25231 ft 437 kts 43°
2026-05-04 19:12 4.20404 -74.87067 24177 ft 433 kts 24°
2026-05-04 19:12 4.23287 -74.86150 23647 ft 431 kts 14°
2026-05-04 19:13 4.26249 -74.85659 23109 ft 429 kts
2026-05-04 19:13 4.29220 -74.85259 22565 ft 426 kts
2026-05-04 19:13 4.32144 -74.84872 22033 ft 423 kts
2026-05-04 19:13 4.35027 -74.84493 21518 ft 420 kts
2026-05-04 19:14 4.37916 -74.84113 21190 ft 411 kts
2026-05-04 19:14 4.40725 -74.83745 21076 ft 397 kts
2026-05-04 19:14 4.43437 -74.83388 20938 ft 384 kts
2026-05-04 19:14 4.46041 -74.83046 20728 ft 375 kts
2026-05-04 19:15 4.48640 -74.82702 20403 ft 371 kts 10°
2026-05-04 19:15 4.51171 -74.82367 20071 ft 367 kts 10°
2026-05-04 19:15 4.53723 -74.82030 19744 ft 365 kts 10°
2026-05-04 19:15 4.56245 -74.81696 19457 ft 364 kts 10°
2026-05-04 19:16 4.58768 -74.81362 19165 ft 364 kts 10°
2026-05-04 19:16 4.61281 -74.81030 18865 ft 363 kts 10°
2026-05-04 19:16 4.63785 -74.80700 18535 ft 358 kts 10°
2026-05-04 19:16 4.66239 -74.80377 18253 ft 352 kts 10°
2026-05-04 19:17 4.68646 -74.80059 17906 ft 348 kts 10°
2026-05-04 19:17 4.71074 -74.79739 17477 ft 347 kts 10°
2026-05-04 19:17 4.73434 -74.79310 17129 ft 340 kts 21°
2026-05-04 19:17 4.75491 -74.78261 16791 ft 327 kts 41°
2026-05-04 19:18 4.77057 -74.76685 16640 ft 314 kts 55°
2026-05-04 19:18 4.78197 -74.74844 16403 ft 311 kts 64°
2026-05-04 19:18 4.79134 -74.72886 16144 ft 309 kts 68°
2026-05-04 19:18 4.79952 -74.70915 15908 ft 306 kts 69°
2026-05-04 19:19 4.80739 -74.68913 15699 ft 307 kts 70°
2026-05-04 19:19 4.81506 -74.66931 15511 ft 307 kts 70°
2026-05-04 19:19 4.82279 -74.64927 15325 ft 307 kts 70°
2026-05-04 19:19 4.83042 -74.62946 15090 ft 306 kts 70°
2026-05-04 19:20 4.83811 -74.60953 14865 ft 304 kts 70°
2026-05-04 19:20 4.84563 -74.59002 14664 ft 302 kts 70°
2026-05-04 19:20 4.85316 -74.57048 14452 ft 301 kts 70°
2026-05-04 19:20 4.86072 -74.55084 14262 ft 301 kts 70°
2026-05-04 19:21 4.86830 -74.53117 14056 ft 300 kts 70°
2026-05-04 19:21 4.87577 -74.51177 13863 ft 299 kts 70°
2026-05-04 19:21 4.88321 -74.49246 13666 ft 297 kts 70°
2026-05-04 19:21 4.89067 -74.47311 13475 ft 290 kts 70°
2026-05-04 19:22 4.89787 -74.45442 13280 ft 284 kts 70°
2026-05-04 19:22 4.90329 -74.43577 13075 ft 276 kts 86°
2026-05-04 19:22 4.90086 -74.41721 12947 ft 269 kts 110°
2026-05-04 19:22 4.89109 -74.40107 12694 ft 275 kts 128°
2026-05-04 19:23 4.87779 -74.38715 12263 ft 278 kts 133°
2026-05-04 19:23 4.86504 -74.37274 12036 ft 270 kts 127°
2026-05-04 19:23 4.85379 -74.35838 12000 ft 253 kts 126°
2026-05-04 19:23 4.84365 -74.34451 12041 ft 237 kts 123°
2026-05-04 19:24 4.83441 -74.33141 11975 ft 232 kts 124°
2026-05-04 19:24 4.82487 -74.31840 11731 ft 231 kts 125°
2026-05-04 19:24 4.81524 -74.30572 11476 ft 225 kts 126°
2026-05-04 19:24 4.80570 -74.29343 11210 ft 219 kts 126°
2026-05-04 19:25 4.79650 -74.28158 10952 ft 213 kts 126°
2026-05-04 19:25 4.78760 -74.27000 10699 ft 203 kts 125°
2026-05-04 19:25 4.77938 -74.25929 10465 ft 187 kts 125°
2026-05-04 19:25 4.77190 -74.24950 10238 ft 170 kts 126°
2026-05-04 19:26 4.76470 -74.24008 10028 ft 168 kts 125°
2026-05-04 19:26 4.75771 -74.23089 9822 ft 164 kts 125°
2026-05-04 19:26 4.75067 -74.22167 9608 ft 166 kts 125°
2026-05-04 19:26 4.74364 -74.21258 9360 ft 167 kts 126°
2026-05-04 19:27 4.73664 -74.20320 9145 ft 165 kts 125°
2026-05-04 19:27 4.72980 -74.19414 8927 ft 163 kts 126°
2026-05-04 19:27 4.72282 -74.18515 8723 ft 161 kts 127°
2026-05-04 19:27 4.71602 -74.17630 8527 ft 161 kts 127°
2026-05-04 19:28 4.70915 -74.16738 8371 ft 160 kts 127°
2026-05-04 19:28 4.70317 -74.15950 8369 ft 120 kts 127°
2026-05-04 19:28 4.69935 -74.15448 8376 ft 57 kts 127°
2026-05-04 19:28 4.69780 -74.15235 8376 ft 25 kts 123°
2026-05-04 19:29 4.69723 -74.15099 8376 ft 19 kts 103°
2026-05-04 19:29 4.69705 -74.14972 8376 ft 17 kts 96°
2026-05-04 19:29 4.69689 -74.14845 8376 ft 19 kts 97°
2026-05-04 19:29 4.69650 -74.14713 8376 ft 19 kts 124°
2026-05-04 19:30 4.69559 -74.14591 8376 ft 24 kts 127°
2026-05-04 19:30 4.69445 -74.14441 8376 ft 29 kts 127°
2026-05-04 19:30 4.69354 -74.14322 8375 ft 10 kts 127°
2026-05-04 19:30 4.69340 -74.14269 8376 ft 6 kts 57°
2026-05-04 19:31 4.69372 -74.14244 8376 ft 5 kts 36°
2026-05-04 19:31 4.69397 -74.14226 8376 ft 1 kts 37°
2026-05-04 19:31 4.69398 -74.14225 8376 ft 0 kts 37°